This demonstration page uses our WeatherBlox Daily Observations layout. Learn more.

40.92945, -100.16068

Hourly Observations for September 25, 2018

Temp ( °F °C ) Dew Point ( °F °C ) Humidity (%) Winds ( mph kmh ) Pressure ( in mb ) Visibility ( mi km ) Precip ( " mm )
12:15 am 00:15 Clear 58 14.5 51 10.8 79 79 NNE 6 9 29.94 1014 10 16.0934 0 0
12:35 am 00:35 Clear 57 14 51 10.6 80 80 NE 8 13 29.91 1013 10 16.0934 0 0
12:55 am 00:55 Clear 56 13.5 51 10.5 82 82 ENE 8 13 29.91 1013 10 16.0934 0 0
1:15 am 01:15 Clear 55 13 51 10.4 84 84 E 8 13 29.88 1012 10 16.0934 0 0
1:35 am 01:35 Partly Cloudy 55 12.8 51 10.3 85 85 E 6 9 29.88 1012 10 16.0934 0 0
1:55 am 01:55 Partly Cloudy 55 12.5 50 10.2 86 86 E 9 15 29.88 1012 10 16.0934 0 0
2:15 am 02:15 Clear 54 12.3 51 10.3 88 88 ESE 8 13 29.85 1011 10 16.0934 0 0
2:35 am 02:35 Clear 54 12.1 50 10.2 88 88 E 7 11 29.85 1011 10 16.0934 0 0
2:55 am 02:55 Clear 54 12 51 10.3 89 89 ESE 7 11 29.85 1011 10 16.0934 0 0
3:15 am 03:15 Clear 53 11.7 50 10.2 91 91 E 8 13 29.88 1012 10 16.0934 0 0
3:35 am 03:35 Partly Cloudy 53 11.5 50 10.1 91 91 NE 6 9 29.88 1012 10 16.0934 0 0
3:55 am 03:55 Mostly Cloudy 53 11.6 51 10.3 92 92 N 6 9 29.91 1013 10 16.0934 0 0
4:15 am 04:15 Cloudy 54 12 51 10.5 91 91 NE 8 13 29.91 1013 10 16.0934 0 0
4:35 am 04:35 Cloudy 54 12.1 51 10.6 91 91 N 7 11 29.94 1014 10 16.0934 0 0
4:55 am 04:55 Cloudy 54 12.1 51 10.6 91 91 N 8 13 29.94 1014 10 16.0934 0 0
5:15 am 05:15 Cloudy 54 12.1 51 10.6 91 91 N 10 17 29.97 1015 10 16.0934 0 0
5:35 am 05:35 Cloudy 54 12.1 51 10.6 91 91 NNE 13 20 29.94 1014 10 16.0934 0 0
5:55 am 05:55 Cloudy 54 12 51 10.5 91 91 N 13 20 29.97 1015 10 16.0934 0 0
6:15 am 06:15 Cloudy 54 12.1 51 10.5 90 90 NNW 12 19 30 1016 10 16.0934 0 0
6:35 am 06:35 Cloudy with Heavy Rain 54 12.3 51 10.8 91 91 WNW 8 13 30.03 1017 5 8.0467 0.05 1.27
6:55 am 06:55 Cloudy with Light Rain 54 12 51 10.8 92 92 N 12 19 30.03 1017 7 11.26538 0.17 4.318
7:15 am 07:15 Cloudy with Nearby Thunderstorms 53 11.8 51 10.6 92 92 NNW 10 17 30.03 1017 10 16.0934 0 0
7:35 am 07:35 Cloudy 54 12 51 10.8 92 92 N 8 13 30.03 1017 10 16.0934 0 0
7:55 am 07:55 Cloudy 54 12.3 51 10.6 89 89 NNW 10 17 30.03 1017 10 16.0934 0 0
8:15 am 08:15 Cloudy 54 12.3 51 10.5 89 89 N 10 17 30.03 1017 10 16.0934 0 0
8:35 am 08:35 Cloudy 55 12.5 51 10.5 88 88 NNW 15 24 30.03 1017 10 16.0934 0 0
8:55 am 08:55 Cloudy 55 12.5 50 9.9 84 84 NNW 15 24 30.03 1017 10 16.0934 0 0
9:15 am 09:15 Cloudy 56 13.2 50 10.1 82 82 N 16 26 30.03 1017 10 16.0934 0 0
9:35 am 09:35 Mostly Cloudy 56 13.4 50 10.1 81 81 NNW 13 20 30.06 1018 10 16.0934 0 0
9:55 am 09:55 Mostly Cloudy 56 13.6 49 9.7 77 77 NNW 18 30 30.06 1018 10 16.0934 0 0
10:15 am 10:15 Cloudy 56 13.1 47 8.1 72 72 NNW 21 33 30.09 1019 10 16.0934 0 0
10:35 am 10:35 Cloudy 56 13.6 47 8.1 70 70 NNW 21 33 30.09 1019 10 16.0934 0 0
10:55 am 10:55 Mostly Cloudy 58 14.6 47 8.3 66 66 N 16 26 30.06 1018 10 16.0934 0 0
11:15 am 11:15 Mostly Cloudy 60 15.6 46 8 61 61 N 18 30 30.06 1018 10 16.0934 0 0
11:35 am 11:35 Mostly Cloudy 60 15.5 46 8 61 61 N 23 37 30.09 1019 10 16.0934 0 0
11:55 am 11:55 Cloudy 60 15.5 45 7.3 58 58 NNW 18 30 30.09 1019 10 16.0934 0 0
12:15 pm 12:15 Cloudy 61 16 45 7.3 57 57 NNW 17 28 30.09 1019 10 16.0934 0 0
12:35 pm 12:35 Mostly Cloudy 61 16.2 46 7.5 57 57 NNW 18 30 30.09 1019 10 16.0934 0 0
12:55 pm 12:55 Mostly Cloudy 62 16.7 45 7.2 54 54 NNW 18 30 30.09 1019 10 16.0934 0 0
1:15 pm 13:15 Mostly Cloudy 63 17.1 45 7 52 52 N 16 26 30.09 1019 10 16.0934 0 0
1:35 pm 13:35 Mostly Cloudy 63 17.4 44 6.4 49 49 N 15 24 30.09 1019 10 16.0934 0 0
1:55 pm 13:55 Mostly Cloudy 64 17.9 42 5.7 45 45 NNW 17 28 30.06 1018 10 16.0934 0 0
2:15 pm 14:15 Partly Cloudy 65 18.1 42 5.6 44 44 NNW 18 30 30.03 1017 10 16.0934 0 0
2:35 pm 14:35 Partly Cloudy 63 17.4 41 5 44 44 NNW 17 28 30.03 1017 10 16.0934 0 0
2:55 pm 14:55 Mostly Cloudy 66 18.9 40 4.3 38 38 N 17 28 30.03 1017 10 16.0934 0 0
3:15 pm 15:15 Mostly Cloudy 65 18.3 40 4.5 40 40 NNW 15 24 30.03 1017 10 16.0934 0 0
3:35 pm 15:35 Partly Cloudy 66 18.9 39 4.1 38 38 NNW 21 33 30.03 1017 10 16.0934 0 0
3:55 pm 15:55 Partly Cloudy 67 19.6 38 3.2 34 34 NNW 21 33 30.03 1017 10 16.0934 0 0
4:15 pm 16:15 Sunny 65 18.6 38 3.3 36 36 NNW 18 30 30.03 1017 10 16.0934 0 0
4:35 pm 16:35 Partly Cloudy 67 19.5 37 2.6 33 33 N 17 28 30.03 1017 10 16.0934 0 0
4:55 pm 16:55 Partly Cloudy 66 18.9 36 2.1 33 33 N 16 26 30.06 1018 10 16.0934 0 0
5:15 pm 17:15 Sunny 65 18.6 36 2.2 34 34 NNW 16 26 30.06 1018 10 16.0934 0 0
5:35 pm 17:35 Sunny 66 18.7 35 1.5 32 32 N 17 28 30.06 1018 10 16.0934 0 0
5:55 pm 17:55 Sunny 65 18.5 34 1.2 31 31 N 16 26 30.06 1018 10 16.0934 0 0
6:15 pm 18:15 Sunny 64 18 35 1.4 33 33 N 17 28 30.06 1018 10 16.0934 0 0
6:35 pm 18:35 Sunny 64 17.5 35 1.4 34 34 N 13 20 30.09 1019 10 16.0934 0 0
6:55 pm 18:55 Sunny 62 16.8 35 1.6 36 36 N 9 15 30.12 1020 10 16.0934 0 0
7:15 pm 19:15 Sunny 60 15.4 37 3 44 44 N 5 7 30.12 1020 10 16.0934 0 0
7:35 pm 19:35 Clear 57 13.9 38 3.5 50 50 N 5 7 30.15 1021 10 16.0934 0 0
7:55 pm 19:55 Clear 56 13.1 39 4.1 55 55 N 3 6 30.18 1022 10 16.0934 0 0
8:15 pm 20:15 Clear 52 11.2 41 5 66 66 Calm 30.21 1023 7 11.26538 0 0
8:35 pm 20:35 Clear 51 10.3 41 5.2 71 71 Calm 30.21 1023 10 16.0934 0 0
8:55 pm 20:55 Clear 50 10 40 4.7 70 70 Calm 30.21 1023 10 16.0934 0 0
9:15 pm 21:15 Clear 48 9 40 4.5 74 74 Calm 30.24 1024 10 16.0934 0 0
9:35 pm 21:35 Clear 46 7.8 40 4.5 80 80 WSW 3 6 30.27 1025 10 16.0934 0 0
9:55 pm 21:55 Clear 46 7.9 40 4.7 80 80 Calm 30.27 1025 10 16.0934 0 0
10:15 pm 22:15 Clear 45 7.4 40 4.5 82 82 Calm 30.27 1025 10 16.0934 0 0
10:35 pm 22:35 Clear 45 7.4 40 4.6 83 83 Calm 30.27 1025 10 16.0934 0 0
10:55 pm 22:55 Clear 45 7 40 4.7 85 85 W 3 6 30.27 1025 10 16.0934 0 0
11:15 pm 23:15 Clear 44 6.6 39 4 84 84 Calm 30.3 1026 10 16.0934 0 0
11:35 pm 23:35 Clear 44 6.4 39 4.1 85 85 W 6 9 30.3 1026 10 16.0934 0 0
11:55 pm 23:55 Clear 44 6.5 39 4.1 85 85 WNW 6 9 30.3 1026 10 16.0934 0 0

Powered by AerisWeather